Overview Statistics Trail Chart Weather Telemetry Raw packets
 

This is the latest recevied weather packets stored in our database for station/object K5FEP. If no packets are shown the sender has not sent any weather packets the latest 10 day(s).

<< 1 2 3 4 5 6 >>
Time Temp. Humidity Pressure Rain* Wind** Luminosity Snow
1788636190 32.22° C 55% 1009.3 hPa 0 mm - 271 W/m² -
1788635889 32.22° C 55% 1009.3 hPa 0 mm - 271 W/m² -
1788635588 32.22° C 55% 1009.5 hPa 0 mm - 274 W/m² -
1788635287 32.22° C 55% 1009.5 hPa 0 mm - 247 W/m² -
1788634987 32.22° C 55% 1009.3 hPa 0 mm - 231 W/m² -
1788634686 32.22° C 54% 1009.2 hPa 0 mm - 221 W/m² -
1788634381 32.78° C 53% 1009.2 hPa 0 mm - 227 W/m² -
1788634081 33.33° C 52% 1009.3 hPa 0 mm - 241 W/m² -
1788633780 33.89° C 51% 1009.4 hPa 0 mm - 321 W/m² -
1788633478 34.44° C 45% 1009.6 hPa 0 mm - 557 W/m² -
1788633175 33.89° C 46% 1009.8 hPa 0 mm - 754 W/m² -
1788632874 33.89° C 47% 1009.6 hPa 0 mm - 779 W/m² -
1788632574 33.33° C 48% 1009.7 hPa 0 mm - 666 W/m² -
1788632269 33.33° C 50% 1009.9 hPa 0 mm - 711 W/m² -
1788631969 32.78° C 52% 1009.8 hPa 0 mm - 719 W/m² -
1788631668 32.78° C 52% 1010 hPa 0 mm - 682 W/m² -
1788631363 32.78° C 52% 1009.9 hPa 0 mm - 530 W/m² -
1788631058 33.33° C 51% 1010.1 hPa 0 mm - 659 W/m² -
1788630753 33.33° C 51% 1010 hPa 0 mm - 934 W/m² -
1788630448 32.78° C 52% 1010.1 hPa 0 mm - 933 W/m² -
1788630144 32.22° C 53% 1010.6 hPa 0 mm - 497 W/m² -
1788629840 32.22° C 53% 1010.5 hPa 0 mm - 353 W/m² -
1788629559 32.22° C 53% 1010.6 hPa 0 mm - 253 W/m² -
1788629235 32.22° C 52% 1010.6 hPa 0 mm - 240 W/m² -
1788628935 32.78° C 52% 1010.9 hPa 0 mm - 217 W/m² -

* Rain latest hour (hover to see other rain measurements)
** Current wind speed in m/s (hover to see current wind gust speed)